Regional Weather Roundup
Issued by NWS

Home | Current Version | Previous Version | Graphics & Text | Print | Product List | Glossary On
Versions: 1 2 3 4 5 6 7 8 9 10 11 12 13 14 15 16 17 18 19 20 21 22 23 24 25 26 27 28 29 30 31 32 33 34 35 36 37 38 39 40 41 42 43 44 45 46 47 48 49 50
000
ASUS43 KDTX 050310
RWRMI
MICHIGAN HOURLY REGIONAL WEATHER ROUNDUP
NATIONAL WEATHER SERVICE DETROIT/PONTIAC MI
ISSUED BY NATIONAL WEATHER SERVICE GRAND RAPIDS MI
1100 PM EDT FRI SEP 04 2015

NOTE: "FAIR" INDICATES FEW OR NO CLOUDS BELOW 12,000 FEET WITH NO
SIGNIFICANT WEATHER AND/OR OBSTRUCTION TO VISIBILITY.

MIZ047>049-052>055-059>063-066>070-074>076-081>083-050400-
SOUTHEAST LOWER MICHIGAN

CITY           SKY/WX    TMP DP  RH WIND       PRES   REMARKS
ADRIAN         PTCLDY    71  69  93 CALM      30.08R
ALMA           CLOUDY    70  70  99 CALM      30.07S FOG
ANN ARBOR      FOG       67  66  97 CALM      30.07S VSB 1/2
BAD AXE        MOCLDY    70  69  95 CALM      30.08S
DETROIT CITY   CLEAR     72  68  87 SE5       30.08R
DETROIT        CLOUDY    73  69  87 CALM      30.07S
FLINT          CLOUDY    76  68  76 CALM      30.07S
GROSSE ILE     PTCLDY    73  70  88 S7        30.06S
HILLSDALE      PTCLDY    69  69 100 CALM      30.09S FOG
HOWELL         PTCLDY    69  67  92 CALM      30.07S

CITY           SKY/WX    TMP DP  RH WIND       PRES   REMARKS
JACKSON        PTCLDY    68  67  96 CALM      30.08R
LANSING        PTCLDY    68  66  93 CALM      30.07S
MASON          PTCLDY    68  66  91 CALM      30.07F FOG
MONROE         PTCLDY    71  67  89 CALM      30.06S
MT. CLEMENS    PTCLDY    72  69  89 E5        30.06S
PONTIAC        CLOUDY    73  69  87 CALM      30.08R
PORT HOPE        N/A     74  66  76 SE13      30.06S
PORT HURON     PTCLDY    70  68  94 SE5       30.09S
TRI CITIES     PTCLDY    70  67  90 CALM      30.07R FOG
YPSILANTI      PTCLDY    71  67  87 NE5       30.08R FOG
$$
MIZ043>046-050>051-056>058-064>065-071>073-077>080-050400-
SOUTHWEST LOWER MICHIGAN

CITY           SKY/WX    TMP DP  RH WIND       PRES   REMARKS
BATTLE CREEK   PTCLDY    70  67  90 CALM      30.07S
BENTON HARBOR  CLEAR     66  64  93 CALM      30.06R FOG
BIG RAPIDS     MOCLDY    66  65  97 CALM      30.07S FOG
COLDWATER      MOCLDY    70  70  99 CALM      30.08R
HOLLAND        CLEAR     66  64  93 CALM      30.07R FOG
GRAND RAPIDS   CLEAR     69  67  93 CALM      30.06S
KALAMAZOO      PTCLDY    71  66  84 CALM      30.07R
MARSHALL       FOG       67  66  97 CALM      30.07S VSB 1/2
MOUNT PLEASANT CLOUDY    72  69  93 CALM      30.06S FOG
MUSKEGON       PTCLDY    68  65  90 CALM      30.06R
STURGIS        PTCLDY    70  70 100 CALM      30.07S
$$
MIZ016>042-050400-
NORTHERN LOWER MICHIGAN

CITY           SKY/WX    TMP DP  RH WIND       PRES   REMARKS
ALPENA         CLOUDY    73  64  73 SE12      30.09S
BEAVER ISLAND  MOCLDY    68  67  94 E5        30.08S
BELLAIRE       FOG       66  65  96 CALM      30.07R VSB 3/4
CADILLAC       FOG       66  65  97 CALM      30.08S VSB 1/2
CHARLEVOIX     CLOUDY    71  69  94 S3        30.10R
GAYLORD        CLOUDY    69  69 100 VRB5      30.10S FOG
HOUGHTON LAKE  MOCLDY    67  66  97 E3        30.09S
MANISTEE       CLOUDY    66  64  94 CALM      30.07S
OSCODA         CLOUDY    71  68  89 E7        30.08S
PELLSTON       MOCLDY    70  66  87 E6        30.09S
TRAVERSE CITY  CLOUDY    72  68  87 CALM      30.05S
LUDINGTON      MOCLDY    69  66  92 CALM      30.06S FOG
$$
MIZ007>008-015-050400-
EASTERN UPPER MICHIGAN

CITY           SKY/WX    TMP DP  RH WIND       PRES   REMARKS
KINROSS        CLEAR     70  66  88 SE5       30.11R
MACKINAC ISLAN CLOUDY    67  64  90 E7        30.10S
NEWBERRY       CLEAR     69  66  90 SE7       30.10S
S. S. MARIE    CLEAR     71  63  75 E5        30.11R
$$
MIZ004>006-011>014-085-050400-
CENTRAL UPPER MICHIGAN

CITY           SKY/WX    TMP DP  RH WIND       PRES   REMARKS
MANISTIQUE     PTCLDY    67  65  94 E3        30.08S
ESCANABA       CLEAR     66  64  94 E3        30.05F
MENOMINEE      CLOUDY    64  63  94 CALM      30.06S
$$
MIZ001>003-009>011-084-050400-
WESTERN UPPER MICHIGAN

CITY           SKY/WX    TMP DP  RH WIND       PRES   REMARKS
IRON MOUNTAIN  CLEAR     67  64  90 SE6       30.07F
HOUGHTON       CLEAR     64  59  83 E8        30.04F
COPPER HARBOR    N/A     68  61  78 VRB7      30.03F
IRONWOOD       CLEAR     73  66  78 S8        29.98F
$$

ABBREVIATIONS USED IN REMARKS
   TC - TEMPERATURE IN CELSIUS
  WCI - WIND CHILL INDEX
   HX - HEAT INDEX
  VSB - VISIBILITY




USA.gov is the U.S. government's official web portal to all federal, state and local government web resources and services.